sat.trackr.live / text

‹ back to catalog

KUIPER-00027

NORAD 63740 · 2025-088S

PAYLOAD ACTIVE UNKNOWN

§ Identity

Operator
Country
US
Launch date
2025-04-28
Launch site
AFETR
Launch vehicle
Mass (kg)
RCS (m²)

External: N2YO · Heavens-Above · Gunter

§ Orbital elements

Epoch: 2026-05-25T02:30:01.436256Z

Period
97.30 min
Inclination
51.9009°
Eccentricity
0.0000672
Mean motion
14.79943884 rev/d
Perigee alt
629.0 km
Apogee alt
630.0 km
Semi-major
7,007.6 km
B*
1.6251e-4
RAAN
117.6869°
Arg perigee
62.8374°
Mean anomaly
297.2656°
Rev number
5,893

§ Raw data

KUIPER-000271 63740U 25088S   26145.10418329  .00001018  00000+0  16251-3 0  99962 63740  51.9009 117.6869 0000672  62.8374 297.2656 14.79943884 58938

JSON: /api/v1/satellites/63740 · /tle

For live sub-satellite position, see the globe view (requires WebGL).

§ Visibility from observer

Set your observer location to see the next 7 days of passes ≥ 10°. The values pass through the URL so the page stays shareable.

No JS? Fill the form by hand. The geolocation button needs JavaScript.